• In Lithuania
  • List of Countries
  • For 7 days
  • Water Temperature
  • Satellite Maps
  • Weather Map
  • Weather Widgets
  • user-avatar
    Login

    Hourly Weather Pakchongo

    Today, 24 November, Friday

    Time Temperature Precipitation Wind Pressure Humidity
    00:00 +22°C° 0 mm 4 mps 729 mmHg 81%
    01:00 +21°C° 0 mm 3 mps 729 mmHg 82%
    02:00 +20°C° 0 mm 3 mps 728 mmHg 82%
    03:00 +20°C° 0 mm 3 mps 728 mmHg 81%
    04:00 +20°C° 0 mm 4 mps 728 mmHg 80%
    05:00 +19°C° 0 mm 4 mps 729 mmHg 81%
    06:00 +19°C° 0 mm 4 mps 729 mmHg 81%
    07:00 +19°C° 0 mm 4 mps 729 mmHg 82%
    08:00 +21°C° 0 mm 4 mps 730 mmHg 78%
    09:00 +22°C° 0 mm 5 mps 730 mmHg 75%
    10:00 +23°C° 0 mm 5 mps 730 mmHg 71%
    11:00 +26°C° 0 mm 5 mps 730 mmHg 69%
    12:00 +27°C° 0 mm 5 mps 730 mmHg 66%
    13:00 +28°C° 0 mm 5 mps 729 mmHg 64%
    14:00 +28°C° 0 mm 5 mps 729 mmHg 65%
    15:00 +28°C° 0 mm 4 mps 729 mmHg 66%
    16:00 +28°C° 0 mm 4 mps 728 mmHg 67%
    17:00 +26°C° 0 mm 4 mps 728 mmHg 70%
    18:00 +25°C° 0 mm 3 mps 728 mmHg 73%
    19:00 +24°C° 0 mm 3 mps 728 mmHg 76%
    20:00 +24°C° 0 mm 3 mps 729 mmHg 75%
    21:00 +22°C° 0 mm 3 mps 729 mmHg 75%
    22:00 +22°C° 0 mm 3 mps 730 mmHg 74%
    23:00 +22°C° 0 mm 3 mps 730 mmHg 74%

    Tomorrow, 25 November, Saturday

    Time Temperature Precipitation Wind Pressure Humidity
    00:00 +21°C° 0 mm 3 mps 730 mmHg 74%
    01:00 +21°C° 0 mm 4 mps 730 mmHg 74%
    02:00 +20°C° 0 mm 3 mps 730 mmHg 75%
    03:00 +20°C° 0 mm 3 mps 729 mmHg 76%
    04:00 +19°C° 0 mm 3 mps 729 mmHg 77%
    05:00 +19°C° 0 mm 3 mps 729 mmHg 78%
    06:00 +19°C° 0 mm 3 mps 730 mmHg 79%
    07:00 +19°C° 0 mm 3 mps 730 mmHg 81%
    08:00 +20°C° 0 mm 4 mps 731 mmHg 77%
    09:00 +22°C° 0 mm 4 mps 731 mmHg 73%
    10:00 +25°C° 0 mm 5 mps 732 mmHg 69%
    11:00 +26°C° 0 mm 5 mps 731 mmHg 67%
    12:00 +27°C° 0 mm 5 mps 730 mmHg 64%
    13:00 +28°C° 0 mm 5 mps 730 mmHg 62%
    14:00 +28°C° 0 mm 4 mps 729 mmHg 63%
    15:00 +28°C° 0 mm 4 mps 728 mmHg 64%
    16:00 +28°C° 0 mm 4 mps 728 mmHg 65%
    17:00 +27°C° 0 mm 3 mps 728 mmHg 68%
    18:00 +25°C° 0 mm 3 mps 728 mmHg 72%
    19:00 +24°C° 0 mm 2 mps 729 mmHg 75%
    20:00 +24°C° 0 mm 2 mps 729 mmHg 75%
    21:00 +23°C° 0 mm 2 mps 730 mmHg 75%
    22:00 +23°C° 0 mm 2 mps 730 mmHg 75%
    23:00 +23°C° 0 mm 2 mps 730 mmHg 76%

    Day after tomorrow, 26 November, Sunday

    Time Temperature Precipitation Wind Pressure Humidity
    00:00 +22°C° 0 mm 3 mps 730 mmHg 77%
    01:00 +21°C° 0 mm 3 mps 729 mmHg 77%
    02:00 +21°C° 0 mm 3 mps 729 mmHg 79%
    03:00 +21°C° 0 mm 3 mps 729 mmHg 80%
    04:00 +20°C° 0 mm 3 mps 728 mmHg 82%
    05:00 +20°C° 0 mm 3 mps 729 mmHg 83%
    06:00 +20°C° 0 mm 3 mps 729 mmHg 83%
    07:00 +20°C° 0 mm 3 mps 730 mmHg 84%
    08:00 +22°C° 0 mm 4 mps 730 mmHg 79%
    09:00 +23°C° 0 mm 5 mps 731 mmHg 74%
    10:00 +26°C° 0 mm 5 mps 731 mmHg 70%
    11:00 +27°C° 0 mm 5 mps 731 mmHg 67%
    12:00 +28°C° 0 mm 5 mps 730 mmHg 64%
    13:00 +29°C° 0 mm 5 mps 729 mmHg 62%
    14:00 +29°C° 0 mm 4 mps 728 mmHg 62%
    15:00 +29°C° 0 mm 4 mps 727 mmHg 63%
    16:00 +29°C° 0 mm 4 mps 727 mmHg 64%
    17:00 +28°C° 0 mm 3 mps 727 mmHg 68%
    18:00 +26°C° 0 mm 3 mps 727 mmHg 72%
    19:00 +25°C° 0 mm 2 mps 728 mmHg 76%
    20:00 +25°C° 0 mm 2 mps 728 mmHg 76%
    21:00 +24°C° 0 mm 2 mps 728 mmHg 76%
    22:00 +24°C° 0 mm 2 mps 729 mmHg 76%
    23:00 +24°C° 0 mm 2 mps 729 mmHg 77%

    27 November, Monday

    Time Temperature Precipitation Wind Pressure Humidity
    00:00 +23°C° 0 mm 2 mps 728 mmHg 78%
    01:00 +23°C° 0 mm 2 mps 728 mmHg 79%
    02:00 +23°C° 0 mm 2 mps 728 mmHg 80%
    03:00 +21°C° 0 mm 3 mps 727 mmHg 81%
    04:00 +21°C° 0 mm 3 mps 727 mmHg 81%
    05:00 +21°C° 0 mm 3 mps 727 mmHg 82%
    06:00 +21°C° 0 mm 3 mps 728 mmHg 83%
    07:00 +20°C° 0 mm 3 mps 728 mmHg 83%
    08:00 +22°C° 0 mm 3 mps 729 mmHg 78%
    09:00 +25°C° 0 mm 4 mps 729 mmHg 74%
    10:00 +27°C° 0 mm 4 mps 730 mmHg 69%
    11:00 +28°C° 0 mm 4 mps 729 mmHg 66%
    12:00 +29°C° 0 mm 4 mps 728 mmHg 63%
    13:00 +30°C° 0 mm 4 mps 727 mmHg 60%
    14:00 +30°C° 0 mm 4 mps 727 mmHg 61%
    15:00 +30°C° 0 mm 3 mps 726 mmHg 62%
    16:00 +30°C° 0 mm 3 mps 725 mmHg 62%
    17:00 +28°C° 0 mm 3 mps 726 mmHg 67%
    18:00 +27°C° 0 mm 2 mps 726 mmHg 71%
    19:00 +25°C° 0 mm 1 mps 726 mmHg 75%
    20:00 +25°C° 0 mm 1 mps 727 mmHg 76%
    21:00 +25°C° 0 mm 1 mps 727 mmHg 76%
    22:00 +24°C° 0 mm 1 mps 727 mmHg 77%
    23:00 +24°C° 0 mm 1 mps 727 mmHg 77%

    28 November, Tuesday

    Time Temperature Precipitation Wind Pressure Humidity
    00:00 +24°C° 0 mm 1 mps 727 mmHg 77%
    01:00 +23°C° 0 mm 1 mps 726 mmHg 77%
    02:00 +23°C° 0 mm 1 mps 726 mmHg 78%
    03:00 +23°C° 0 mm 2 mps 726 mmHg 79%
    04:00 +23°C° 0 mm 2 mps 726 mmHg 79%
    05:00 +23°C° 0 mm 2 mps 726 mmHg 81%
    06:00 +23°C° 0 mm 2 mps 727 mmHg 82%
    07:00 +23°C° 0 mm 2 mps 727 mmHg 84%
    08:00 +24°C° 0 mm 3 mps 728 mmHg 78%
    09:00 +26°C° 0 mm 3 mps 728 mmHg 72%
    10:00 +28°C° 0 mm 4 mps 729 mmHg 67%
    11:00 +29°C° 0 mm 4 mps 728 mmHg 64%
    12:00 +30°C° 0 mm 4 mps 728 mmHg 61%
    13:00 +32°C° 0 mm 4 mps 727 mmHg 58%
    14:00 +32°C° 0 mm 4 mps 726 mmHg 59%
    15:00 +31°C° 0 mm 3 mps 726 mmHg 60%
    16:00 +31°C° 0 mm 3 mps 725 mmHg 62%
    17:00 +29°C° 0 mm 3 mps 726 mmHg 65%
    18:00 +28°C° 0 mm 2 mps 726 mmHg 69%
    19:00 +26°C° 0 mm 1 mps 727 mmHg 72%
    20:00 +26°C° 0 mm 1 mps 727 mmHg 73%
    21:00 +26°C° 0 mm 1 mps 727 mmHg 74%
    22:00 +25°C° 0 mm 1 mps 727 mmHg 75%
    23:00 +25°C° 0 mm 1 mps 727 mmHg 76%

    29 November, Wednesday

    Time Temperature Precipitation Wind Pressure Humidity
    00:00 +24°C° 0 mm 2 mps 726 mmHg 77%
    01:00 +24°C° 0 mm 2 mps 726 mmHg 78%
    02:00 +24°C° 0 mm 2 mps 726 mmHg 79%
    03:00 +24°C° 0 mm 2 mps 726 mmHg 81%
    04:00 +23°C° 0 mm 2 mps 726 mmHg 82%
    05:00 +23°C° 0 mm 2 mps 726 mmHg 83%
    06:00 +23°C° 0 mm 2 mps 727 mmHg 84%
    07:00 +23°C° 0 mm 2 mps 727 mmHg 86%
    08:00 +25°C° 0 mm 3 mps 728 mmHg 82%
    09:00 +26°C° 0 mm 3 mps 728 mmHg 79%
    10:00 +27°C° 0 mm 4 mps 728 mmHg 76%
    11:00 +28°C° 0 mm 4 mps 728 mmHg 73%
    12:00 +29°C° 0 mm 4 mps 727 mmHg 70%
    13:00 +30°C° 0 mm 3 mps 726 mmHg 67%
    14:00 +30°C° 0 mm 3 mps 726 mmHg 67%
    15:00 +30°C° 0 mm 3 mps 726 mmHg 68%
    16:00 +30°C° 0 mm 2 mps 725 mmHg 68%
    17:00 +29°C° 0 mm 2 mps 726 mmHg 71%
    18:00 +28°C° 0 mm 2 mps 726 mmHg 75%
    19:00 +27°C° 0 mm 2 mps 726 mmHg 78%
    20:00 +26°C° 0 mm 2 mps 726 mmHg 79%
    21:00 +26°C° 0 mm 2 mps 727 mmHg 80%
    22:00 +25°C° 0 mm 1 mps 727 mmHg 81%
    23:00 +25°C° 0 mm 1 mps 726 mmHg 82%
    Show more